Time,TemperatureF,DewpointF,PressureIn,WindDirection,WindDirectionDegrees,WindSpeedMPH,WindSpeedGustMPH,Humidity,HourlyPrecipIn,Conditions,Clouds,dailyrainin,SoftwareType,DateUTC
2013-05-05 00:01:00,51.2,40.6,30.25,NNE,32,0.0,2.0,67,0.00,,,0.00,Wunderground v.1.15,2013-05-05 04:01:00,
2013-05-05 00:06:00,51.1,40.5,30.24,ENE,57,2.0,3.0,67,0.00,,,0.00,Wunderground v.1.15,2013-05-05 04:06:00,
2013-05-05 00:11:00,50.9,40.7,30.25,NE,54,1.0,5.0,68,0.00,,,0.00,Wunderground v.1.15,2013-05-05 04:11:00,
2013-05-05 00:16:00,50.9,40.7,30.25,NNE,15,3.0,7.0,68,0.00,,,0.00,Wunderground v.1.15,2013-05-05 04:16:00,
2013-05-05 00:21:00,51.0,40.8,30.24,ENE,69,3.0,5.0,68,0.00,,,0.00,Wunderground v.1.15,2013-05-05 04:21:00,
2013-05-05 00:26:00,50.8,40.6,30.25,NE,54,1.0,6.0,68,0.00,,,0.00,Wunderground v.1.15,2013-05-05 04:26:00,
2013-05-05 00:31:00,50.7,40.9,30.25,NE,54,1.0,2.0,69,0.00,,,0.00,Wunderground v.1.15,2013-05-05 04:31:00,
2013-05-05 00:36:00,50.5,40.7,30.25,NE,40,0.0,5.0,69,0.00,,,0.00,Wunderground v.1.15,2013-05-05 04:36:00,
2013-05-05 00:41:00,50.4,41.0,30.25,NNE,26,4.0,5.0,70,0.00,,,0.00,Wunderground v.1.15,2013-05-05 04:41:00,
2013-05-05 00:46:00,50.3,40.5,30.25,East,90,3.0,6.0,69,0.00,,,0.00,Wunderground v.1.15,2013-05-05 04:46:00,
2013-05-05 00:51:00,50.2,40.4,30.25,ENE,62,3.0,8.0,69,0.00,,,0.00,Wunderground v.1.15,2013-05-05 04:51:00,
2013-05-05 00:56:00,50.2,40.4,30.25,NNE,26,2.0,8.0,69,0.00,,,0.00,Wunderground v.1.15,2013-05-05 04:56:00,
2013-05-05 01:01:00,50.0,40.2,30.25,East,89,2.0,7.0,69,0.00,,,0.00,Wunderground v.1.15,2013-05-05 05:01:00,
2013-05-05 01:06:00,49.9,40.5,30.25,NE,51,1.0,11.0,70,0.00,,,0.00,Wunderground v.1.15,2013-05-05 05:06:00,
2013-05-05 01:11:00,49.7,40.3,30.25,ENE,69,3.0,5.0,70,0.00,,,0.00,Wunderground v.1.15,2013-05-05 05:11:00,
2013-05-05 01:16:00,49.5,40.1,30.25,ENE,65,1.0,7.0,70,0.00,,,0.00,Wunderground v.1.15,2013-05-05 05:16:00,
2013-05-05 01:21:00,49.4,40.0,30.24,ENE,60,3.0,5.0,70,0.00,,,0.00,Wunderground v.1.15,2013-05-05 05:21:00,
2013-05-05 01:26:00,49.2,40.2,30.24,NE,54,2.0,7.0,71,0.00,,,0.00,Wunderground v.1.15,2013-05-05 05:26:00,
2013-05-05 01:31:00,49.1,40.1,30.24,NE,44,3.0,4.0,71,0.00,,,0.00,Wunderground v.1.15,2013-05-05 05:31:00,
2013-05-05 01:36:00,48.8,40.2,30.24,NE,50,2.0,4.0,72,0.00,,,0.00,Wunderground v.1.15,2013-05-05 05:36:00,
2013-05-05 01:41:00,48.6,40.0,30.24,NNE,30,2.0,3.0,72,0.00,,,0.00,Wunderground v.1.15,2013-05-05 05:41:00,
2013-05-05 01:46:00,48.5,40.2,30.23,NE,38,4.0,7.0,73,0.00,,,0.00,Wunderground v.1.15,2013-05-05 05:46:00,
2013-05-05 01:51:00,48.3,40.4,30.23,ENE,64,2.0,3.0,74,0.00,,,0.00,Wunderground v.1.15,2013-05-05 05:51:00,
2013-05-05 01:56:00,48.2,40.3,30.23,ENE,71,2.0,5.0,74,0.00,,,0.00,Wunderground v.1.15,2013-05-05 05:56:00,
2013-05-05 02:01:00,48.0,40.5,30.23,NE,52,1.0,3.0,75,0.00,,,0.00,Wunderground v.1.15,2013-05-05 06:01:00,
2013-05-05 02:06:00,47.8,40.6,30.23,NE,52,2.0,3.0,76,0.00,,,0.00,Wunderground v.1.15,2013-05-05 06:06:00,
2013-05-05 02:11:00,47.6,40.7,30.23,NE,34,1.0,2.0,77,0.00,,,0.00,Wunderground v.1.15,2013-05-05 06:11:00,
2013-05-05 02:16:00,47.5,40.6,30.23,NE,49,1.0,5.0,77,0.00,,,0.00,Wunderground v.1.15,2013-05-05 06:16:00,
2013-05-05 02:21:00,47.4,40.9,30.22,NE,49,0.0,2.0,78,0.00,,,0.00,Wunderground v.1.15,2013-05-05 06:21:00,
2013-05-05 02:26:00,47.1,40.9,30.22,NE,49,3.0,3.0,79,0.00,,,0.00,Wunderground v.1.15,2013-05-05 06:26:00,
2013-05-05 02:31:00,46.9,40.7,30.22,NE,49,0.0,2.0,79,0.00,,,0.00,Wunderground v.1.15,2013-05-05 06:31:00,
2013-05-05 02:36:00,46.7,40.9,30.22,NE,49,1.0,2.0,80,0.00,,,0.00,Wunderground v.1.15,2013-05-05 06:36:00,
2013-05-05 02:41:00,46.5,41.0,30.22,NE,49,1.0,2.0,81,0.00,,,0.00,Wunderground v.1.15,2013-05-05 06:41:00,
2013-05-05 02:46:00,46.3,40.8,30.22,NE,49,3.0,3.0,81,0.00,,,0.00,Wunderground v.1.15,2013-05-05 06:46:00,
2013-05-05 02:51:00,46.4,41.2,30.22,NE,51,0.0,2.0,82,0.00,,,0.00,Wunderground v.1.15,2013-05-05 06:51:00,
2013-05-05 02:56:00,46.0,41.1,30.22,NE,51,0.0,2.0,83,0.00,,,0.00,Wunderground v.1.15,2013-05-05 06:56:00,
2013-05-05 03:01:00,45.6,40.7,30.22,NE,51,0.0,0.0,83,0.00,,,0.00,Wunderground v.1.15,2013-05-05 07:01:00,
2013-05-05 03:06:00,45.1,40.6,30.22,NE,51,0.0,0.0,84,0.00,,,0.00,Wunderground v.1.15,2013-05-05 07:06:00,
2013-05-05 03:11:00,44.8,40.6,30.22,NE,51,0.0,1.0,85,0.00,,,0.00,Wunderground v.1.15,2013-05-05 07:11:00,
2013-05-05 03:16:00,44.9,40.7,30.22,NE,51,3.0,3.0,85,0.00,,,0.00,Wunderground v.1.15,2013-05-05 07:16:00,
2013-05-05 03:21:00,45.0,40.8,30.22,NE,51,1.0,2.0,85,0.00,,,0.00,Wunderground v.1.15,2013-05-05 07:21:00,
2013-05-05 03:26:00,45.1,41.2,30.22,NE,51,2.0,3.0,86,0.00,,,0.00,Wunderground v.1.15,2013-05-05 07:26:00,
2013-05-05 03:31:00,45.3,41.4,30.22,ENE,59,1.0,2.0,86,0.00,,,0.00,Wunderground v.1.15,2013-05-05 07:31:00,
2013-05-05 03:36:00,45.5,41.6,30.22,ENE,68,1.0,5.0,86,0.00,,,0.00,Wunderground v.1.15,2013-05-05 07:36:00,
2013-05-05 03:41:00,45.6,41.4,30.22,NE,53,2.0,5.0,85,0.00,,,0.00,Wunderground v.1.15,2013-05-05 07:41:00,
2013-05-05 03:46:00,45.6,41.4,30.23,NE,51,3.0,5.0,85,0.00,,,0.00,Wunderground v.1.15,2013-05-05 07:46:00,
2013-05-05 03:51:00,45.9,41.6,30.23,NE,44,3.0,3.0,85,0.00,,,0.00,Wunderground v.1.15,2013-05-05 07:51:00,
2013-05-05 03:56:00,46.1,41.8,30.23,NE,35,1.0,9.0,85,0.00,,,0.00,Wunderground v.1.15,2013-05-05 07:56:00,
2013-05-05 04:01:00,46.4,41.8,30.23,East,81,5.0,7.0,84,0.00,,,0.00,Wunderground v.1.15,2013-05-05 08:01:00,
2013-05-05 04:06:00,46.5,41.9,30.23,NE,50,0.0,7.0,84,0.00,,,0.00,Wunderground v.1.15,2013-05-05 08:06:00,
2013-05-05 04:11:00,46.7,41.8,30.22,NE,55,0.0,5.0,83,0.00,,,0.00,Wunderground v.1.15,2013-05-05 08:11:00,
2013-05-05 04:16:00,46.7,41.8,30.23,NE,46,2.0,6.0,83,0.00,,,0.00,Wunderground v.1.15,2013-05-05 08:16:00,
2013-05-05 04:21:00,46.7,41.8,30.23,NE,40,1.0,2.0,83,0.00,,,0.00,Wunderground v.1.15,2013-05-05 08:21:00,
2013-05-05 04:26:00,46.7,41.8,30.23,ENE,69,3.0,6.0,83,0.00,,,0.00,Wunderground v.1.15,2013-05-05 08:26:00,
2013-05-05 04:31:00,46.7,41.5,30.22,ENE,72,5.0,7.0,82,0.00,,,0.00,Wunderground v.1.15,2013-05-05 08:31:00,
2013-05-05 04:36:00,46.5,41.3,30.22,ENE,68,6.0,10.0,82,0.00,,,0.00,Wunderground v.1.15,2013-05-05 08:36:00,
2013-05-05 04:41:00,46.4,41.2,30.22,East,101,3.0,5.0,82,0.00,,,0.00,Wunderground v.1.15,2013-05-05 08:41:00,
2013-05-05 04:46:00,46.4,40.9,30.22,NE,56,6.0,10.0,81,0.00,,,0.00,Wunderground v.1.15,2013-05-05 08:46:00,
2013-05-05 04:51:00,46.4,41.2,30.22,NE,49,4.0,6.0,82,0.00,,,0.00,Wunderground v.1.15,2013-05-05 08:51:00,
2013-05-05 04:56:00,46.4,40.9,30.22,ENE,71,3.0,7.0,81,0.00,,,0.00,Wunderground v.1.15,2013-05-05 08:56:00,
2013-05-05 05:01:00,46.4,40.9,30.22,NE,44,3.0,7.0,81,0.00,,,0.00,Wunderground v.1.15,2013-05-05 09:01:00,
2013-05-05 05:06:00,46.3,40.8,30.22,NE,55,3.0,7.0,81,0.00,,,0.00,Wunderground v.1.15,2013-05-05 09:06:00,
2013-05-05 05:11:00,46.1,40.6,30.22,ENE,61,3.0,5.0,81,0.00,,,0.00,Wunderground v.1.15,2013-05-05 09:11:00,
2013-05-05 05:16:00,46.1,40.6,30.22,ENE,61,2.0,5.0,81,0.00,,,0.00,Wunderground v.1.15,2013-05-05 09:16:00,
2013-05-05 05:21:00,46.1,40.6,30.22,NE,56,1.0,3.0,81,0.00,,,0.00,Wunderground v.1.15,2013-05-05 09:21:00,
2013-05-05 05:26:00,46.1,40.6,30.22,NE,53,1.0,9.0,81,0.00,,,0.00,Wunderground v.1.15,2013-05-05 09:26:00,
2013-05-05 05:31:00,46.1,40.6,30.22,NE,55,3.0,3.0,81,0.00,,,0.00,Wunderground v.1.15,2013-05-05 09:31:00,
2013-05-05 05:36:00,46.0,40.5,30.22,NE,56,1.0,5.0,81,0.00,,,0.00,Wunderground v.1.15,2013-05-05 09:36:00,
2013-05-05 05:41:00,46.0,40.8,30.23,NE,56,3.0,3.0,82,0.00,,,0.00,Wunderground v.1.15,2013-05-05 09:41:00,
2013-05-05 05:46:00,45.9,40.7,30.23,NE,53,2.0,4.0,82,0.00,,,0.00,Wunderground v.1.15,2013-05-05 09:46:00,
2013-05-05 05:51:00,45.8,40.6,30.23,ENE,58,2.0,2.0,82,0.00,,,0.00,Wunderground v.1.15,2013-05-05 09:51:00,
2013-05-05 05:56:00,45.7,40.8,30.23,ENE,58,0.0,2.0,83,0.00,,,0.00,Wunderground v.1.15,2013-05-05 09:56:00,
2013-05-05 06:01:00,45.7,40.8,30.23,ENE,58,0.0,0.0,83,0.00,,,0.00,Wunderground v.1.15,2013-05-05 10:01:00,
2013-05-05 06:06:00,45.9,41.0,30.23,ENE,58,0.0,2.0,83,0.00,,,0.00,Wunderground v.1.15,2013-05-05 10:06:00,
2013-05-05 06:11:00,46.1,41.2,30.23,ENE,62,6.0,6.0,83,0.00,,,0.00,Wunderground v.1.15,2013-05-05 10:11:00,
2013-05-05 06:16:00,46.2,41.0,30.23,NE,44,2.0,10.0,82,0.00,,,0.00,Wunderground v.1.15,2013-05-05 10:16:00,
2013-05-05 06:21:00,46.3,41.1,30.24,NE,49,3.0,9.0,82,0.00,,,0.00,Wunderground v.1.15,2013-05-05 10:21:00,
2013-05-05 06:26:00,46.3,40.8,30.24,ENE,57,5.0,9.0,81,0.00,,,0.00,Wunderground v.1.15,2013-05-05 10:26:00,
2013-05-05 06:31:00,46.3,40.8,30.24,ENE,78,3.0,5.0,81,0.00,,,0.00,Wunderground v.1.15,2013-05-05 10:31:00,
2013-05-05 06:36:00,46.2,40.7,30.24,NE,38,3.0,6.0,81,0.00,,,0.00,Wunderground v.1.15,2013-05-05 10:36:00,
2013-05-05 06:41:00,46.0,40.2,30.24,ENE,66,2.0,6.0,80,0.00,,,0.00,Wunderground v.1.15,2013-05-05 10:41:00,
2013-05-05 06:46:00,46.0,40.2,30.24,ENE,59,2.0,6.0,80,0.00,,,0.00,Wunderground v.1.15,2013-05-05 10:46:00,
2013-05-05 06:51:00,46.0,40.2,30.24,ENE,60,1.0,3.0,80,0.00,,,0.00,Wunderground v.1.15,2013-05-05 10:51:00,
2013-05-05 06:56:00,46.0,39.9,30.24,NE,55,2.0,10.0,79,0.00,,,0.00,Wunderground v.1.15,2013-05-05 10:56:00,
2013-05-05 07:01:00,46.1,40.3,30.24,East,83,5.0,6.0,80,0.00,,,0.00,Wunderground v.1.15,2013-05-05 11:01:00,
2013-05-05 07:06:00,46.1,39.9,30.24,NE,42,8.0,8.0,79,0.00,,,0.00,Wunderground v.1.15,2013-05-05 11:06:00,
2013-05-05 07:11:00,46.1,39.9,30.24,ENE,63,3.0,4.0,79,0.00,,,0.00,Wunderground v.1.15,2013-05-05 11:11:00,
2013-05-05 07:16:00,46.2,39.7,30.24,ENE,69,2.0,11.0,78,0.00,,,0.00,Wunderground v.1.15,2013-05-05 11:16:00,
2013-05-05 07:21:00,46.2,39.7,30.24,NE,51,2.0,6.0,78,0.00,,,0.00,Wunderground v.1.15,2013-05-05 11:21:00,
2013-05-05 07:26:00,46.2,39.7,30.24,NE,48,0.0,10.0,78,0.00,,,0.00,Wunderground v.1.15,2013-05-05 11:26:00,
2013-05-05 07:31:00,46.3,39.5,30.24,ENE,61,9.0,17.0,77,0.00,,,0.00,Wunderground v.1.15,2013-05-05 11:31:00,
2013-05-05 07:36:00,46.2,39.7,30.24,ENE,78,7.0,17.0,78,0.00,,,0.00,Wunderground v.1.15,2013-05-05 11:36:00,
2013-05-05 07:41:00,46.3,39.8,30.24,ENE,73,3.0,5.0,78,0.00,,,0.00,Wunderground v.1.15,2013-05-05 11:41:00,
2013-05-05 07:46:00,46.5,40.0,30.25,East,90,4.0,5.0,78,0.00,,,0.00,Wunderground v.1.15,2013-05-05 11:46:00,
2013-05-05 07:51:00,46.8,40.3,30.25,NE,51,5.0,11.0,78,0.00,,,0.00,Wunderground v.1.15,2013-05-05 11:51:00,
2013-05-05 07:56:00,46.8,39.6,30.25,ENE,57,1.0,11.0,76,0.00,,,0.00,Wunderground v.1.15,2013-05-05 11:56:00,
2013-05-05 08:01:00,47.0,39.8,30.25,NE,54,9.0,9.0,76,0.00,,,0.00,Wunderground v.1.15,2013-05-05 12:01:00,
2013-05-05 08:06:00,47.0,39.8,30.25,ESE,121,5.0,15.0,76,0.00,,,0.00,Wunderground v.1.15,2013-05-05 12:06:00,
2013-05-05 08:11:00,47.0,39.5,30.26,ENE,59,13.0,13.0,75,0.00,,,0.00,Wunderground v.1.15,2013-05-05 12:11:00,
2013-05-05 08:16:00,46.9,39.7,30.25,East,92,3.0,13.0,76,0.00,,,0.00,Wunderground v.1.15,2013-05-05 12:16:00,
2013-05-05 08:21:00,47.2,40.0,30.26,NNE,30,5.0,16.0,76,0.00,,,0.00,Wunderground v.1.15,2013-05-05 12:21:00,
2013-05-05 08:26:00,47.3,40.1,30.26,ENE,70,5.0,16.0,76,0.00,,,0.00,Wunderground v.1.15,2013-05-05 12:26:00,
2013-05-05 08:31:00,47.4,39.9,30.26,ENE,63,1.0,8.0,75,0.00,,,0.00,Wunderground v.1.15,2013-05-05 12:31:00,
2013-05-05 08:36:00,47.9,40.4,30.26,East,90,4.0,8.0,75,0.00,,,0.00,Wunderground v.1.15,2013-05-05 12:36:00,
2013-05-05 08:41:00,48.4,39.8,30.26,NE,42,2.0,11.0,72,0.00,,,0.00,Wunderground v.1.15,2013-05-05 12:41:00,
2013-05-05 08:46:00,48.0,39.8,30.26,East,92,4.0,11.0,73,0.00,,,0.00,Wunderground v.1.15,2013-05-05 12:46:00,
2013-05-05 08:51:00,47.8,39.6,30.26,ENE,76,2.0,6.0,73,0.00,,,0.00,Wunderground v.1.15,2013-05-05 12:51:00,
2013-05-05 08:56:00,47.6,39.0,30.27,ENE,64,5.0,10.0,72,0.00,,,0.00,Wunderground v.1.15,2013-05-05 12:56:00,
2013-05-05 09:01:00,47.8,39.6,30.27,ENE,78,4.0,8.0,73,0.00,,,0.00,Wunderground v.1.15,2013-05-05 13:01:00,
2013-05-05 09:06:00,47.7,39.5,30.27,East,95,3.0,10.0,73,0.00,,,0.00,Wunderground v.1.15,2013-05-05 13:06:00,
2013-05-05 09:11:00,47.7,39.5,30.26,ENE,73,6.0,6.0,73,0.00,,,0.00,Wunderground v.1.15,2013-05-05 13:11:00,
2013-05-05 09:16:00,48.0,39.4,30.26,ENE,73,5.0,9.0,72,0.00,,,0.00,Wunderground v.1.15,2013-05-05 13:16:00,
2013-05-05 09:21:00,48.2,39.9,30.27,NNE,32,2.0,9.0,73,0.00,,,0.00,Wunderground v.1.15,2013-05-05 13:21:00,
2013-05-05 09:26:00,48.2,39.6,30.26,ENE,71,5.0,9.0,72,0.00,,,0.00,Wunderground v.1.15,2013-05-05 13:26:00,
2013-05-05 09:31:00,48.1,39.9,30.26,NE,52,1.0,4.0,73,0.00,,,0.00,Wunderground v.1.15,2013-05-05 13:31:00,
2013-05-05 09:36:00,48.5,39.9,30.26,NNE,32,4.0,10.0,72,0.00,,,0.00,Wunderground v.1.15,2013-05-05 13:36:00,
2013-05-05 09:41:00,48.5,40.2,30.26,ENE,76,7.0,10.0,73,0.00,,,0.00,Wunderground v.1.15,2013-05-05 13:41:00,
2013-05-05 09:46:00,48.6,40.3,30.26,SSW,213,1.0,10.0,73,0.00,,,0.00,Wunderground v.1.15,2013-05-05 13:46:00,
2013-05-05 09:51:00,49.1,40.1,30.26,NE,55,7.0,9.0,71,0.00,,,0.00,Wunderground v.1.15,2013-05-05 13:51:00,
2013-05-05 09:56:00,49.0,40.7,30.26,NNW,347,1.0,10.0,73,0.00,,,0.00,Wunderground v.1.15,2013-05-05 13:56:00,
2013-05-05 10:01:00,49.2,40.2,30.26,East,89,12.0,13.0,71,0.00,,,0.00,Wunderground v.1.15,2013-05-05 14:01:00,
2013-05-05 10:06:00,49.0,40.4,30.26,ENE,57,6.0,13.0,72,0.00,,,0.00,Wunderground v.1.15,2013-05-05 14:06:00,
2013-05-05 10:11:00,50.0,41.0,30.26,NE,51,5.0,10.0,71,0.00,,,0.00,Wunderground v.1.15,2013-05-05 14:11:00,
2013-05-05 10:16:00,50.4,41.7,30.26,NE,56,7.0,10.0,72,0.00,,,0.00,Wunderground v.1.15,2013-05-05 14:16:00,
2013-05-05 10:21:00,50.2,40.0,30.26,NNE,26,4.0,8.0,68,0.00,,,0.00,Wunderground v.1.15,2013-05-05 14:21:00,
2013-05-05 10:26:00,50.4,40.6,30.26,NNW,335,3.0,9.0,69,0.00,,,0.00,Wunderground v.1.15,2013-05-05 14:26:00,
2013-05-05 10:31:00,50.1,40.3,30.26,NE,55,3.0,9.0,69,0.00,,,0.00,Wunderground v.1.15,2013-05-05 14:31:00,
2013-05-05 10:36:00,50.3,40.9,30.26,NE,36,3.0,9.0,70,0.00,,,0.00,Wunderground v.1.15,2013-05-05 14:36:00,
2013-05-05 10:41:00,50.6,40.8,30.26,ENE,69,3.0,6.0,69,0.00,,,0.00,Wunderground v.1.15,2013-05-05 14:41:00,
2013-05-05 10:46:00,50.8,41.0,30.26,East,88,7.0,10.0,69,0.00,,,0.00,Wunderground v.1.15,2013-05-05 14:46:00,
2013-05-05 10:51:00,50.7,40.9,30.26,ENE,57,2.0,4.0,69,0.00,,,0.00,Wunderground v.1.15,2013-05-05 14:51:00,
2013-05-05 10:56:00,51.1,41.3,30.26,ENE,69,6.0,6.0,69,0.00,,,0.00,Wunderground v.1.15,2013-05-05 14:56:00,
2013-05-05 11:01:00,51.6,41.8,30.26,WNW,284,7.0,7.0,69,0.00,,,0.00,Wunderground v.1.15,2013-05-05 15:01:00,
2013-05-05 11:06:00,51.4,41.2,30.26,ENE,70,6.0,7.0,68,0.00,,,0.00,Wunderground v.1.15,2013-05-05 15:06:00,
2013-05-05 11:11:00,51.5,41.7,30.26,NE,41,4.0,6.0,69,0.00,,,0.00,Wunderground v.1.15,2013-05-05 15:11:00,
2013-05-05 11:16:00,51.7,41.5,30.25,ENE,75,3.0,7.0,68,0.00,,,0.00,Wunderground v.1.15,2013-05-05 15:16:00,
2013-05-05 11:21:00,53.3,42.2,30.25,ENE,58,5.0,8.0,66,0.00,,,0.00,Wunderground v.1.15,2013-05-05 15:21:00,
2013-05-05 11:26:00,52.5,40.7,30.25,ENE,63,8.0,15.0,64,0.00,,,0.00,Wunderground v.1.15,2013-05-05 15:26:00,
2013-05-05 11:31:00,53.3,42.2,30.25,ENE,64,7.0,10.0,66,0.00,,,0.00,Wunderground v.1.15,2013-05-05 15:31:00,
2013-05-05 11:36:00,54.0,42.5,30.25,SE,126,4.0,10.0,65,0.00,,,0.00,Wunderground v.1.15,2013-05-05 15:36:00,
2013-05-05 11:41:00,52.6,40.4,30.25,ENE,71,2.0,8.0,63,0.00,,,0.00,Wunderground v.1.15,2013-05-05 15:41:00,
2013-05-05 11:46:00,52.8,41.0,30.25,NE,50,7.0,8.0,64,0.00,,,0.00,Wunderground v.1.15,2013-05-05 15:46:00,
2013-05-05 11:51:00,53.4,41.5,30.25,NE,39,3.0,10.0,64,0.00,,,0.00,Wunderground v.1.15,2013-05-05 15:51:00,
2013-05-05 11:56:00,55.1,44.7,30.25,South,191,1.0,10.0,68,0.00,,,0.00,Wunderground v.1.15,2013-05-05 15:56:00,
2013-05-05 12:01:00,55.0,44.2,30.25,ENE,77,2.0,3.0,67,0.00,,,0.00,Wunderground v.1.15,2013-05-05 16:01:00,
2013-05-05 12:06:00,54.9,41.7,30.24,ENE,69,6.0,8.0,61,0.00,,,0.00,Wunderground v.1.15,2013-05-05 16:06:00,
2013-05-05 12:11:00,53.7,41.4,30.24,ENE,58,6.0,8.0,63,0.00,,,0.00,Wunderground v.1.15,2013-05-05 16:11:00,
2013-05-05 12:16:00,55.9,42.2,30.24,NNE,25,1.0,9.0,60,0.00,,,0.00,Wunderground v.1.15,2013-05-05 16:16:00,
2013-05-05 12:21:00,56.3,43.4,30.24,East,91,3.0,8.0,62,0.00,,,0.00,Wunderground v.1.15,2013-05-05 16:21:00,
2013-05-05 12:26:00,55.0,41.8,30.24,SE,128,1.0,11.0,61,0.00,,,0.00,Wunderground v.1.15,2013-05-05 16:26:00,
2013-05-05 12:31:00,56.8,44.3,30.23,ENE,71,15.0,15.0,63,0.00,,,0.00,Wunderground v.1.15,2013-05-05 16:31:00,
2013-05-05 12:36:00,55.3,41.2,30.23,NNE,30,0.0,16.0,59,0.00,,,0.00,Wunderground v.1.15,2013-05-05 16:36:00,
2013-05-05 12:41:00,57.0,42.8,30.23,ENE,64,7.0,13.0,59,0.00,,,0.00,Wunderground v.1.15,2013-05-05 16:41:00,
2013-05-05 12:46:00,56.9,42.7,30.23,ENE,76,7.0,13.0,59,0.00,,,0.00,Wunderground v.1.15,2013-05-05 16:46:00,
2013-05-05 12:51:00,56.9,42.3,30.23,NNE,29,7.0,10.0,58,0.00,,,0.00,Wunderground v.1.15,2013-05-05 16:51:00,
2013-05-05 12:56:00,57.5,46.6,30.23,ESE,118,2.0,10.0,67,0.00,,,0.00,Wunderground v.1.15,2013-05-05 16:56:00,
2013-05-05 13:01:00,57.0,41.9,30.23,ESE,123,0.0,5.0,57,0.00,,,0.00,Wunderground v.1.15,2013-05-05 17:01:00,
2013-05-05 13:06:00,56.4,43.5,30.23,East,84,2.0,9.0,62,0.00,,,0.00,Wunderground v.1.15,2013-05-05 17:06:00,
2013-05-05 13:11:00,57.4,43.6,30.23,SE,139,2.0,5.0,60,0.00,,,0.00,Wunderground v.1.15,2013-05-05 17:11:00,
2013-05-05 13:16:00,56.9,43.2,30.23,ENE,65,9.0,11.0,60,0.00,,,0.00,Wunderground v.1.15,2013-05-05 17:16:00,
2013-05-05 13:21:00,57.4,43.6,30.23,East,89,4.0,9.0,60,0.00,,,0.00,Wunderground v.1.15,2013-05-05 17:21:00,
2013-05-05 13:26:00,57.9,45.4,30.23,ENE,78,2.0,9.0,63,0.00,,,0.00,Wunderground v.1.15,2013-05-05 17:26:00,
2013-05-05 13:31:00,58.1,44.7,30.22,SE,131,2.0,5.0,61,0.00,,,0.00,Wunderground v.1.15,2013-05-05 17:31:00,
2013-05-05 13:36:00,59.3,45.0,30.22,East,101,3.0,6.0,59,0.00,,,0.00,Wunderground v.1.15,2013-05-05 17:36:00,
2013-05-05 13:41:00,59.0,45.1,30.22,SE,146,1.0,3.0,60,0.00,,,0.00,Wunderground v.1.15,2013-05-05 17:41:00,
2013-05-05 13:46:00,59.0,43.3,30.22,NE,42,4.0,9.0,56,0.00,,,0.00,Wunderground v.1.15,2013-05-05 17:46:00,
2013-05-05 13:51:00,57.9,43.2,30.22,East,82,10.0,11.0,58,0.00,,,0.00,Wunderground v.1.15,2013-05-05 17:51:00,
2013-05-05 13:56:00,57.8,42.7,30.22,ENE,74,2.0,11.0,57,0.00,,,0.00,Wunderground v.1.15,2013-05-05 17:56:00,
2013-05-05 14:01:00,58.6,42.5,30.22,ESE,115,5.0,10.0,55,0.00,,,0.00,Wunderground v.1.15,2013-05-05 18:01:00,
2013-05-05 14:06:00,59.3,44.5,30.22,NNE,18,2.0,10.0,58,0.00,,,0.00,Wunderground v.1.15,2013-05-05 18:06:00,
2013-05-05 14:11:00,59.1,43.9,30.22,East,84,3.0,9.0,57,0.00,,,0.00,Wunderground v.1.15,2013-05-05 18:11:00,
2013-05-05 14:16:00,59.3,45.0,30.21,East,100,1.0,9.0,59,0.00,,,0.00,Wunderground v.1.15,2013-05-05 18:16:00,
2013-05-05 14:21:00,60.2,44.0,30.21,East,80,3.0,4.0,55,0.00,,,0.00,Wunderground v.1.15,2013-05-05 18:21:00,
2013-05-05 14:26:00,59.3,43.1,30.21,ENE,61,7.0,10.0,55,0.00,,,0.00,Wunderground v.1.15,2013-05-05 18:26:00,
2013-05-05 14:31:00,59.7,43.0,30.21,ENE,59,8.0,11.0,54,0.00,,,0.00,Wunderground v.1.15,2013-05-05 18:31:00,
2013-05-05 14:36:00,59.3,43.1,30.21,ENE,77,8.0,11.0,55,0.00,,,0.00,Wunderground v.1.15,2013-05-05 18:36:00,
2013-05-05 14:41:00,59.3,42.6,30.21,NE,55,1.0,6.0,54,0.00,,,0.00,Wunderground v.1.15,2013-05-05 18:41:00,
2013-05-05 14:46:00,60.1,45.3,30.21,ENE,63,3.0,7.0,58,0.00,,,0.00,Wunderground v.1.15,2013-05-05 18:46:00,
2013-05-05 14:51:00,60.2,43.5,30.21,East,93,4.0,9.0,54,0.00,,,0.00,Wunderground v.1.15,2013-05-05 18:51:00,
2013-05-05 14:56:00,60.5,44.2,30.21,East,92,4.0,9.0,55,0.00,,,0.00,Wunderground v.1.15,2013-05-05 18:56:00,
2013-05-05 15:01:00,60.3,43.6,30.21,ESE,112,4.0,6.0,54,0.00,,,0.00,Wunderground v.1.15,2013-05-05 19:01:00,
2013-05-05 15:06:00,60.8,45.9,30.20,ENE,57,5.0,8.0,58,0.00,,,0.00,Wunderground v.1.15,2013-05-05 19:06:00,
2013-05-05 15:11:00,60.3,43.1,30.20,NE,49,2.0,7.0,53,0.00,,,0.00,Wunderground v.1.15,2013-05-05 19:11:00,
2013-05-05 15:16:00,60.6,43.4,30.20,ENE,57,5.0,8.0,53,0.00,,,0.00,Wunderground v.1.15,2013-05-05 19:16:00,
2013-05-05 15:21:00,61.2,45.4,30.20,ESE,114,1.0,5.0,56,0.00,,,0.00,Wunderground v.1.15,2013-05-05 19:21:00,
2013-05-05 15:26:00,60.8,43.1,30.20,East,86,8.0,9.0,52,0.00,,,0.00,Wunderground v.1.15,2013-05-05 19:26:00,
2013-05-05 15:31:00,60.5,43.8,30.19,NE,38,4.0,6.0,54,0.00,,,0.00,Wunderground v.1.15,2013-05-05 19:31:00,
2013-05-05 15:36:00,60.2,43.5,30.19,ENE,71,3.0,9.0,54,0.00,,,0.00,Wunderground v.1.15,2013-05-05 19:36:00,
2013-05-05 15:41:00,60.9,46.0,30.19,ENE,65,7.0,7.0,58,0.00,,,0.00,Wunderground v.1.15,2013-05-05 19:41:00,
2013-05-05 15:46:00,61.1,43.3,30.19,East,91,1.0,10.0,52,0.00,,,0.00,Wunderground v.1.15,2013-05-05 19:46:00,
2013-05-05 15:51:00,61.3,44.5,30.19,ENE,57,5.0,7.0,54,0.00,,,0.00,Wunderground v.1.15,2013-05-05 19:51:00,
2013-05-05 15:57:00,60.5,43.8,30.19,SE,125,3.0,13.0,54,0.00,,,0.00,Wunderground v.1.15,2013-05-05 19:57:00,
2013-05-05 16:02:00,60.8,44.0,30.19,NE,48,3.0,8.0,54,0.00,,,0.00,Wunderground v.1.15,2013-05-05 20:02:00,
2013-05-05 16:07:00,61.6,44.8,30.19,ENE,71,6.0,10.0,54,0.00,,,0.00,Wunderground v.1.15,2013-05-05 20:07:00,
2013-05-05 16:12:00,61.2,43.4,30.19,ENE,57,8.0,9.0,52,0.00,,,0.00,Wunderground v.1.15,2013-05-05 20:12:00,
2013-05-05 16:17:00,61.0,43.2,30.18,ENE,57,5.0,10.0,52,0.00,,,0.00,Wunderground v.1.15,2013-05-05 20:17:00,
2013-05-05 16:22:00,60.5,43.3,30.18,ENE,75,2.0,5.0,53,0.00,,,0.00,Wunderground v.1.15,2013-05-05 20:22:00,
2013-05-05 16:27:00,61.3,44.0,30.18,East,82,4.0,13.0,53,0.00,,,0.00,Wunderground v.1.15,2013-05-05 20:27:00,
2013-05-05 16:32:00,61.5,43.7,30.17,NE,55,5.0,9.0,52,0.00,,,0.00,Wunderground v.1.15,2013-05-05 20:32:00,
2013-05-05 16:37:00,61.2,44.9,30.17,East,85,5.0,11.0,55,0.00,,,0.00,Wunderground v.1.15,2013-05-05 20:37:00,
2013-05-05 16:42:00,61.1,44.3,30.17,ENE,68,6.0,8.0,54,0.00,,,0.00,Wunderground v.1.15,2013-05-05 20:42:00,
2013-05-05 16:47:00,61.4,43.6,30.17,ENE,70,2.0,10.0,52,0.00,,,0.00,Wunderground v.1.15,2013-05-05 20:47:00,
2013-05-05 16:52:00,61.1,43.8,30.17,South,182,3.0,11.0,53,0.00,,,0.00,Wunderground v.1.15,2013-05-05 20:52:00,
2013-05-05 16:57:00,61.1,43.8,30.17,ESE,113,2.0,11.0,53,0.00,,,0.00,Wunderground v.1.15,2013-05-05 20:57:00,
2013-05-05 17:02:00,61.4,44.1,30.17,East,82,5.0,5.0,53,0.00,,,0.00,Wunderground v.1.15,2013-05-05 21:02:00,
2013-05-05 17:07:00,61.8,45.5,30.17,East,94,7.0,8.0,55,0.00,,,0.00,Wunderground v.1.15,2013-05-05 21:07:00,
2013-05-05 17:12:00,61.4,44.1,30.17,ENE,67,3.0,8.0,53,0.00,,,0.00,Wunderground v.1.15,2013-05-05 21:12:00,
2013-05-05 17:17:00,61.4,44.6,30.17,NNE,30,5.0,11.0,54,0.00,,,0.00,Wunderground v.1.15,2013-05-05 21:17:00,
2013-05-05 17:22:00,61.1,44.3,30.17,ENE,67,5.0,6.0,54,0.00,,,0.00,Wunderground v.1.15,2013-05-05 21:22:00,
2013-05-05 17:27:00,60.8,44.0,30.17,ENE,78,3.0,11.0,54,0.00,,,0.00,Wunderground v.1.15,2013-05-05 21:27:00,
2013-05-05 17:32:00,60.9,44.6,30.18,NE,55,1.0,5.0,55,0.00,,,0.00,Wunderground v.1.15,2013-05-05 21:32:00,
2013-05-05 17:37:00,61.0,44.2,30.18,ENE,69,3.0,8.0,54,0.00,,,0.00,Wunderground v.1.15,2013-05-05 21:37:00,
2013-05-05 17:42:00,61.0,44.7,30.17,NNE,32,3.0,5.0,55,0.00,,,0.00,Wunderground v.1.15,2013-05-05 21:42:00,
2013-05-05 17:47:00,60.9,44.6,30.18,East,90,1.0,10.0,55,0.00,,,0.00,Wunderground v.1.15,2013-05-05 21:47:00,
2013-05-05 17:52:00,60.9,45.1,30.18,ENE,59,7.0,9.0,56,0.00,,,0.00,Wunderground v.1.15,2013-05-05 21:52:00,
2013-05-05 17:57:00,61.1,45.7,30.18,East,84,10.0,11.0,57,0.00,,,0.00,Wunderground v.1.15,2013-05-05 21:57:00,
2013-05-05 18:02:00,60.9,45.6,30.18,ESE,113,1.0,10.0,57,0.00,,,0.00,Wunderground v.1.15,2013-05-05 22:02:00,
2013-05-05 18:07:00,61.0,46.1,30.18,ENE,71,6.0,10.0,58,0.00,,,0.00,Wunderground v.1.15,2013-05-05 22:07:00,
2013-05-05 18:12:00,60.6,44.8,30.18,NE,50,3.0,8.0,56,0.00,,,0.00,Wunderground v.1.15,2013-05-05 22:12:00,
2013-05-05 18:17:00,60.0,45.2,30.18,NE,42,5.0,8.0,58,0.00,,,0.00,Wunderground v.1.15,2013-05-05 22:17:00,
2013-05-05 18:22:00,59.8,45.4,30.18,NE,44,4.0,5.0,59,0.00,,,0.00,Wunderground v.1.15,2013-05-05 22:22:00,
2013-05-05 18:27:00,59.6,44.8,30.18,ESE,104,2.0,14.0,58,0.00,,,0.00,Wunderground v.1.15,2013-05-05 22:27:00,
2013-05-05 18:32:00,59.6,45.2,30.18,ENE,67,2.0,8.0,59,0.00,,,0.00,Wunderground v.1.15,2013-05-05 22:32:00,
2013-05-05 18:37:00,59.3,45.0,30.18,NE,54,3.0,8.0,59,0.00,,,0.00,Wunderground v.1.15,2013-05-05 22:37:00,
2013-05-05 18:42:00,59.5,45.2,30.18,ESE,123,1.0,7.0,59,0.00,,,0.00,Wunderground v.1.15,2013-05-05 22:42:00,
2013-05-05 18:47:00,59.3,44.5,30.18,ENE,57,2.0,9.0,58,0.00,,,0.00,Wunderground v.1.15,2013-05-05 22:47:00,
2013-05-05 18:52:00,59.1,44.3,30.18,NE,50,4.0,6.0,58,0.00,,,0.00,Wunderground v.1.15,2013-05-05 22:52:00,
2013-05-05 18:57:00,58.9,44.1,30.18,ENE,73,1.0,7.0,58,0.00,,,0.00,Wunderground v.1.15,2013-05-05 22:57:00,
2013-05-05 19:02:00,58.9,45.0,30.18,ESE,113,1.0,5.0,60,0.00,,,0.00,Wunderground v.1.15,2013-05-05 23:02:00,
2013-05-05 19:07:00,58.7,44.8,30.18,NE,40,2.0,5.0,60,0.00,,,0.00,Wunderground v.1.15,2013-05-05 23:07:00,
2013-05-05 19:12:00,58.5,44.7,30.18,ENE,62,2.0,6.0,60,0.00,,,0.00,Wunderground v.1.15,2013-05-05 23:12:00,
2013-05-05 19:17:00,58.4,45.0,30.18,NNE,33,2.0,7.0,61,0.00,,,0.00,Wunderground v.1.15,2013-05-05 23:17:00,
2013-05-05 19:22:00,58.2,45.2,30.18,ENE,59,6.0,7.0,62,0.00,,,0.00,Wunderground v.1.15,2013-05-05 23:22:00,
2013-05-05 19:27:00,58.1,45.1,30.18,NE,35,4.0,7.0,62,0.00,,,0.00,Wunderground v.1.15,2013-05-05 23:27:00,
2013-05-05 19:32:00,57.9,45.0,30.19,NE,36,1.0,4.0,62,0.00,,,0.00,Wunderground v.1.15,2013-05-05 23:32:00,
2013-05-05 19:37:00,57.6,45.5,30.19,NE,37,2.0,6.0,64,0.00,,,0.00,Wunderground v.1.15,2013-05-05 23:37:00,
2013-05-05 19:42:00,57.5,45.8,30.18,NE,44,1.0,3.0,65,0.00,,,0.00,Wunderground v.1.15,2013-05-05 23:42:00,
2013-05-05 19:47:00,57.3,45.6,30.18,ENE,78,3.0,8.0,65,0.00,,,0.00,Wunderground v.1.15,2013-05-05 23:47:00,
2013-05-05 19:52:00,57.1,45.4,30.19,ENE,60,2.0,3.0,65,0.00,,,0.00,Wunderground v.1.15,2013-05-05 23:52:00,
2013-05-05 19:57:00,56.7,45.5,30.19,East,101,4.0,6.0,66,0.00,,,0.00,Wunderground v.1.15,2013-05-05 23:57:00,
2013-05-05 20:02:00,56.6,45.4,30.19,NE,49,3.0,8.0,66,0.00,,,0.00,Wunderground v.1.15,2013-05-06 00:02:00,
2013-05-05 20:07:00,56.6,45.8,30.19,NNE,30,2.0,8.0,67,0.00,,,0.00,Wunderground v.1.15,2013-05-06 00:07:00,
2013-05-05 20:12:00,56.5,46.1,30.19,NE,34,2.0,4.0,68,0.00,,,0.00,Wunderground v.1.15,2013-05-06 00:12:00,
2013-05-05 20:17:00,56.4,46.0,30.19,ENE,67,5.0,8.0,68,0.00,,,0.00,Wunderground v.1.15,2013-05-06 00:17:00,
2013-05-05 20:22:00,56.3,45.9,30.19,ENE,57,1.0,5.0,68,0.00,,,0.00,Wunderground v.1.15,2013-05-06 00:22:00,
2013-05-05 20:27:00,56.0,46.0,30.19,NE,52,2.0,5.0,69,0.00,,,0.00,Wunderground v.1.15,2013-05-06 00:27:00,
2013-05-05 20:32:00,55.9,46.3,30.19,ENE,67,2.0,8.0,70,0.00,,,0.00,Wunderground v.1.15,2013-05-06 00:32:00,
2013-05-05 20:37:00,55.8,46.2,30.19,East,85,5.0,8.0,70,0.00,,,0.00,Wunderground v.1.15,2013-05-06 00:37:00,
2013-05-05 20:42:00,55.9,46.3,30.19,East,92,5.0,7.0,70,0.00,,,0.00,Wunderground v.1.15,2013-05-06 00:42:00,
2013-05-05 20:47:00,55.8,46.2,30.19,NE,34,3.0,7.0,70,0.00,,,0.00,Wunderground v.1.15,2013-05-06 00:47:00,
2013-05-05 20:52:00,55.7,46.1,30.19,NE,55,2.0,4.0,70,0.00,,,0.00,Wunderground v.1.15,2013-05-06 00:52:00,
2013-05-05 20:57:00,55.4,46.2,30.19,NE,55,5.0,5.0,71,0.00,,,0.00,Wunderground v.1.15,2013-05-06 00:57:00,
2013-05-05 21:02:00,55.3,46.1,30.19,NE,46,3.0,5.0,71,0.00,,,0.00,Wunderground v.1.15,2013-05-06 01:02:00,
2013-05-05 21:07:00,55.0,46.1,30.19,NE,45,2.0,7.0,72,0.00,,,0.00,Wunderground v.1.15,2013-05-06 01:07:00,
2013-05-05 21:12:00,54.9,46.0,30.19,NE,46,2.0,5.0,72,0.00,,,0.00,Wunderground v.1.15,2013-05-06 01:12:00,
2013-05-05 21:17:00,54.8,45.9,30.19,ENE,74,5.0,6.0,72,0.00,,,0.00,Wunderground v.1.15,2013-05-06 01:17:00,
2013-05-05 21:22:00,54.9,46.4,30.19,ENE,71,3.0,8.0,73,0.00,,,0.00,Wunderground v.1.15,2013-05-06 01:22:00,
2013-05-05 21:27:00,54.8,46.3,30.19,ENE,73,6.0,8.0,73,0.00,,,0.00,Wunderground v.1.15,2013-05-06 01:27:00,
2013-05-05 21:32:00,54.8,46.3,30.18,NE,53,3.0,6.0,73,0.00,,,0.00,Wunderground v.1.15,2013-05-06 01:32:00,
2013-05-05 21:37:00,54.8,46.7,30.19,ENE,69,2.0,8.0,74,0.00,,,0.00,Wunderground v.1.15,2013-05-06 01:37:00,
2013-05-05 21:42:00,54.8,46.7,30.19,ENE,69,2.0,7.0,74,0.00,,,0.00,Wunderground v.1.15,2013-05-06 01:42:00,
2013-05-05 21:47:00,54.8,46.7,30.19,NE,56,3.0,8.0,74,0.00,,,0.00,Wunderground v.1.15,2013-05-06 01:47:00,
2013-05-05 21:52:00,54.6,46.5,30.19,NE,54,2.0,5.0,74,0.00,,,0.00,Wunderground v.1.15,2013-05-06 01:52:00,
2013-05-05 21:57:00,54.4,46.6,30.19,NE,51,1.0,5.0,75,0.00,,,0.00,Wunderground v.1.15,2013-05-06 01:57:00,
2013-05-05 22:02:00,54.2,46.4,30.19,NE,51,1.0,2.0,75,0.00,,,0.00,Wunderground v.1.15,2013-05-06 02:02:00,
2013-05-05 22:07:00,53.8,46.4,30.20,NNE,32,4.0,4.0,76,0.00,,,0.00,Wunderground v.1.15,2013-05-06 02:07:00,
2013-05-05 22:12:00,53.5,46.5,30.20,NE,44,1.0,3.0,77,0.00,,,0.00,Wunderground v.1.15,2013-05-06 02:12:00,
2013-05-05 22:17:00,53.7,47.0,30.20,NE,55,3.0,5.0,78,0.00,,,0.00,Wunderground v.1.15,2013-05-06 02:17:00,
2013-05-05 22:22:00,53.8,47.1,30.20,NE,56,2.0,6.0,78,0.00,,,0.00,Wunderground v.1.15,2013-05-06 02:22:00,
2013-05-05 22:27:00,53.6,46.9,30.20,NE,45,4.0,7.0,78,0.00,,,0.00,Wunderground v.1.15,2013-05-06 02:27:00,
2013-05-05 22:32:00,53.4,47.0,30.20,NE,41,3.0,3.0,79,0.00,,,0.00,Wunderground v.1.15,2013-05-06 02:32:00,
2013-05-05 22:37:00,53.3,47.0,30.20,East,93,0.0,5.0,79,0.00,,,0.00,Wunderground v.1.15,2013-05-06 02:37:00,
2013-05-05 22:42:00,53.1,47.1,30.20,North,1,2.0,3.0,80,0.00,,,0.00,Wunderground v.1.15,2013-05-06 02:42:00,
2013-05-05 22:47:00,53.1,47.1,30.20,NE,40,1.0,5.0,80,0.00,,,0.00,Wunderground v.1.15,2013-05-06 02:47:00,
2013-05-05 22:52:00,52.8,46.8,30.20,NNE,30,3.0,4.0,80,0.00,,,0.00,Wunderground v.1.15,2013-05-06 02:52:00,
2013-05-05 22:57:00,52.7,47.0,30.20,ENE,57,1.0,5.0,81,0.00,,,0.00,Wunderground v.1.15,2013-05-06 02:57:00,
2013-05-05 23:02:00,52.6,46.9,30.20,NE,44,1.0,4.0,81,0.00,,,0.00,Wunderground v.1.15,2013-05-06 03:02:00,
2013-05-05 23:07:00,52.3,47.0,30.20,ENE,63,2.0,4.0,82,0.00,,,0.00,Wunderground v.1.15,2013-05-06 03:07:00,
2013-05-05 23:12:00,52.2,46.9,30.20,ENE,64,2.0,5.0,82,0.00,,,0.00,Wunderground v.1.15,2013-05-06 03:12:00,
2013-05-05 23:17:00,52.3,47.0,30.20,ENE,77,2.0,5.0,82,0.00,,,0.00,Wunderground v.1.15,2013-05-06 03:17:00,
2013-05-05 23:22:00,52.2,47.2,30.20,East,94,4.0,7.0,83,0.00,,,0.00,Wunderground v.1.15,2013-05-06 03:22:00,
2013-05-05 23:27:00,52.3,47.3,30.20,East,87,4.0,9.0,83,0.00,,,0.00,Wunderground v.1.15,2013-05-06 03:27:00,
2013-05-05 23:32:00,52.3,47.3,30.20,NNE,31,3.0,3.0,83,0.00,,,0.00,Wunderground v.1.15,2013-05-06 03:32:00,
2013-05-05 23:37:00,52.1,47.1,30.20,NE,39,3.0,5.0,83,0.00,,,0.00,Wunderground v.1.15,2013-05-06 03:37:00,
2013-05-05 23:42:00,51.9,46.9,30.20,NE,40,2.0,3.0,83,0.00,,,0.00,Wunderground v.1.15,2013-05-06 03:42:00,
2013-05-05 23:47:00,51.6,46.9,30.20,NNE,28,2.0,4.0,84,0.00,,,0.00,Wunderground v.1.15,2013-05-06 03:47:00,
2013-05-05 23:52:00,51.5,47.1,30.20,NE,49,2.0,5.0,85,0.00,,,0.00,Wunderground v.1.15,2013-05-06 03:52:00,
2013-05-05 23:57:00,51.4,47.0,30.20,NE,49,1.0,5.0,85,0.00,,,0.00,Wunderground v.1.15,2013-05-06 03:57:00,